Lid_Strength_Index
1 1 1 1 1 1 1 2 3 6 5 2 2 -0 -0 -0 -1 -1 -1 -0 -0 1 1 2 2 2 1 1 1 1 2 1 1 0 0 -0 -1 -1
1 1 1 1 1 1 1 1 1 3 5 2 2 0 -0 0 -1 -1 -1 0 1 1 2 2 2 2 2 2 2 2 2 1 1 1 1 1 0 -0
1 1 1 1 1 1 1 1 2 2 4 3 1 0 0 1 1 -1 -1 -1 -1 2 2 2 3 3 3 3 3 3 2 1 1 1 1 1 1 1
1 1 1 1 1 1 1 2 2 1 3 4 2 1 1 1 0 1 1 -1 -1 0 2 3 3 4 4 4 5 4 2 2 2 2 2 1 1 1
1 1 1 1 2 1 1 2 1 1 2 3 3 1 1 2 2 1 0 -0 -1 0 2 3 4 4 5 5 5 5 5 5 4 4 3 2 2 1
1 1 1 1 2 1 2 2 2 2 2 3 3 3 2 1 1 2 2 0 1 -0 0 1 2 3 4 4 4 4 6 7 6 6 6 5 5 3
1 1 1 1 1 1 1 2 2 2 3 3 3 3 3 3 3 2 2 2 1 0 0 0 -0 -0 -0 3 2 3 5 5 6 6 6 7 7 6
2 1 1 1 1 3 3 3 1 2 3 3 3 4 3 2 2 2 2 3 4 0 1 1 -0 1 -0 -0 2 4 5 5 6 6 7 7 7 7
1 1 1 1 1 1 3 4 3 4 2 2 3 3 3 2 1 2 2 2 3 1 1 2 1 1 -0 -0 4 5 5 6 6 6 7 7 8 8
1 1 1 1 1 1 1 2 2 2 2 2 1 1 1 0 1 1 1 1 1 1 0 3 1 1 0 -0 4 5 6 6 6 6 7 8 9 10
1 1 1 1 2 5 2 2 2 3 3 5 5 5 5 4 1 1 2 3 4 3 1 2 2 2 1 1 -0 5 6 7 7 7 7 8 9 10
2 1 3 2 5 6 3 2 3 3 3 2 3 4 4 2 4 0 1 3 3 4 1 2 2 2 3 1 0 1 2 7 8 8 8 9 10 4
2 2 1 5 7 8 7 2 3 2 3 1 1 1 1 1 1 0 0 1 3 3 1 1 2 2 2 2 1 0 1 3 3 5 10 11 10 5
3 2 2 6 8 9 9 7 8 6 2 3 2 2 2 2 1 1 0 1 0 1 2 1 2 2 2 3 3 1 0 1 0 2 3 9 10 10
3 4 6 9 9 9 10 9 8 4 3 3 3 3 2 1 1 1 0 0 0 1 2 1 1 1 1 2 3 2 2 1 0 1 2 3 2 5
4 4 5 6 7 6 6 9 6 5 4 3 3 2 1 1 2 1 2 2 2 3 2 2 1 1 2 2 2 2 2 3 1 1 1 1 1 1
10 5 4 3 3 3 3 4 3 2 2 2 2 2 3 2 2 1 2 2 3 4 4 3 4 3 3 1 3 2 2 2 2 3 2 2 2 2
4 3 3 3 3 3 4 4 3 3 2 2 2 2 3 3 3 2 2 3 3 4 4 4 5 5 4 6 5 2 3 3 3 3 4 3 4 3
3 3 3 3 3 3 4 3 3 3 3 3 2 2 2 3 3 3 3 3 5 5 4 3 3 3 5 5 5 8 4 4 4 5 4 4 3 4
2 3 3 4 4 3 3 3 3 2 3 3 3 3 3 3 3 3 4 4 4 4 4 3 3 3 4 4 5 5 10 5 5 5 5 5 5 6
2 3 3 4 3 3 4 3 3 4 3 3 3 3 3 3 4 4 4 7 6 4 4 4 4 5 5 4 6 6 7 9 6 4 5 4 4 3
2 2 2 2 2 2 4 4 4 4 2 3 3 3 3 3 3 4 4 4 4 4 5 5 4 4 3 3 4 5 7 6 7 6 6 5 2 4
1 1 1 1 1 1 1 1 2 2 3 2 2 3 3 3 4 4 4 4 4 5 5 6 6 4 4 4 5 4 5 4 3 1 1 5 5 5